Regional Weather Roundup
Issued by NWS Pendleton, OR

Home | Current Version | Previous Version | Text Only | Print | Product List | Glossary On
Versions: 1 2 3 4 5 6 7 8 9 10 11 12 13 14 15 16 17 18 19 20 21 22 23 24 25 26 27 28 29 30 31 32 33 34 35 36 37 38 39 40 41 42 43 44 45 46 47 48 49 50
000
ASUS46 KPDT 200625
RWRPDT
PENDLETON REGIONAL WEATHER ROUNDUP
NATIONAL WEATHER SERVICE PENDLETON OREGON
1000 PM PST FRI DEC 19 2014

NOTE: FAIR INDICATES FEW OR NO CLOUDS BELOW 12,000 FEET WITH NO
SIGNIFICANT WEATHER AND/OR OBSTRUCTIONS TO VISIBILITY.

# INDICATES UNOFFICIAL STATION AND DATA

WAZ520-200710-
EAST SLOPES OF WASHINGTON CASCADES

CITY            SKY/WX      TMP DP  RH  WIND    PRES   REMARKS
#BULLFROG 2SW   N/A         34  35  100 CALM    27.52F
#BUMPING DAM    N/A         32  N/A N/A SE1     N/A
#CLE ELUM HS    N/A         33  32  96  CALM    29.89F
#CLE ELUM 2NW   N/A         32  32  100 CALM    N/A
#CLE ELUM LAKE  N/A         31  30  96  CALM    29.96F
#CLIFFDEL 2NW   N/A         30  29  96  SW1     N/A
#GLENWOOD       N/A         33  32  96  CALM    29.98F
#MANASTASH CYN  N/A         32  29  89  CALM    29.89F
#NELSON         N/A         32  31  96  CALM    30.00F
#NELSON 3SW     N/A         32  31  96  CALM    30.19F
#NILE           N/A         32  32  100 CALM    29.24F
#RONALD 2NW     N/A         33  32  96  NW1     29.78F
#SNOWDEN        N/A         37  35  92  CALM    N/A
#TEANAWAY 4NE   N/A         32  32  100 CALM    N/A
#TROUT LAKE HS  N/A         37  37  100 S1      N/A
#TROUT LAKE 1NE N/A         36  35  96  CALM    29.98F
$$

WAZ521-200710-
SIMCOE HIGHLANDS

CITY            SKY/WX      TMP DP  RH  WIND    PRES   REMARKS
#BICKLETON HS   N/A         34  26  72  CALM    34.25S
#CENTERVILLE 4W N/A         40  37  89  NE1     29.70F
#CENTERVILLE 1SWN/A         34  32  92  CALM    29.98F
#GOLDENDALE     N/A         35  34  96  CALM    N/A
#GOLDENDALE 1NE N/A         36  35  96  N2      N/A
#GOLDENDALE 1S  N/A         35  34  96  CALM    29.93F
#GOLDENDALE 5WNWN/A         37  35  92  CALM    29.97F
#GOODNOE HILLS  N/A         41  34  76  E3      N/A
#LYLE 6NE       N/A         38  37  96  CALM    29.95F
$$

WAZ026-200710-
KITTITAS VALLEY

CITY            SKY/WX      TMP DP  RH  WIND    PRES   REMARKS
ELLENSBURG AP   CLOUDY      36  30  79  W3      29.93F
6HR MIN TEMP:   33; 6HR MAX TEMP:   42;

#ELLENSBURG CWU N/A         33  32  96  CALM    29.93F
#ELLENSBURG 3NE N/A         32  30  92  N1      29.94F
#ELLENSBURG     N/A         34  34  100 SW1     N/A
#ELLENSBURG 1E  N/A         33  31  92  CALM    N/A
#KITTITAS 4N    N/A         35  30  82  NE3     29.97F
#KITTITAS 3S    N/A         30  29  96  CALM    29.98F
#THORP 6N       N/A         33  32  96  SE2     29.99F
$$

WAZ027-200710-
YAKIMA VALLEY

CITY            SKY/WX      TMP DP  RH  WIND    PRES   REMARKS
YAKIMA AIRPORT  CLOUDY      35  32  89  S3      29.97F FOG
YAKIMA-VAGABOND MOCLDY      34  33  96  E2      29.97F
#DONALD 2NE     N/A         40  34  79  SW1     28.81F
#GRANDVIEW      N/A         36  35  96  CALM    30.02F
#MABTON         N/A         35  35  100 CALM    29.98F
#MOXEE 2E       N/A         35  35  100 CALM    29.92S
#NACHES 2SW     N/A         34  33  96  CALM    29.94F
#OUTLOOK DOT    N/A         N/A N/A N/A CALM    N/A
#SELAH 8E       N/A         36  33  89  S3      N/A
#TERRACE HTS    N/A         35  34  96  CALM    29.97F
#WAPATO 4NE     N/A         40  34  79  SW1     28.81F
#WEST VALLEY    N/A         35  34  96  CALM    29.99F
#W YAKIMA       N/A         36  34  92  NW2     29.99F
#WHITE SWAN 5E  N/A         33  32  96  CALM    30.00F
#WILEY CITY 3W  N/A         33  30  89  CALM    29.97F
$$

WAZ028-200710-
LOWER COLUMBIA BASIN...WASHINGTON

CITY            SKY/WX      TMP DP  RH  WIND    PRES   REMARKS
PASCO           CLOUDY      39  36  89  S3      30.01F
6HR MIN TEMP:   37; 6HR MAX TEMP:   48;

PROSSER AWOS    N/A         43  41  93  S8      30.01F
RICHLAND AWOS   CLOUDY      41  36  82  CALM    30.01F
#BASIN CITY 5SW N/A         38  35  89  CALM    29.98F
#BENTON CITY    N/A         41  37  86  CALM    29.91F
#CONNELL 5N     N/A         36  34  92  E1      30.01F
#CONNELL 5NW    N/A         37  34  89  CALM    29.97F
#ELTOPIA        N/A         39  37  92  E2      29.97F
#ELTOPIA 6NW    N/A         37  35  92  SE1     28.95F
#KAHLOTUS       N/A         40  36  85  SW5     30.01F
#KENNEWICK      N/A         34  35  100 CALM    27.52F
#KENNEWICK 3S   N/A         43  38  82  CALM    30.01F
#PASCO-BROADMOORN/A         43  36  76  S2      29.91F
#PATERSON       N/A         41  38  89  E2      30.00F
#PROSSER        N/A         42  35  76  S3      30.01F
#SAGEMOOR 2W    N/A         39  36  89  E2      29.85F
#TOUCHET 2S     N/A         35  33  92  CALM    30.01F
#WEST PASCO     N/A         44  38  79  SE2     30.02F
$$

WAZ029-200710-
FOOTHILLS OF THE BLUES...WASHINGTON

CITY            SKY/WX      TMP DP  RH  WIND    PRES   REMARKS
WALLA WALLA AP  MOCLDY      41  33  73  E7      29.99F
6HR MIN TEMP:   37; 6HR MAX TEMP:   48;

#COLLEGE PLACE  N/A         38  28  67  NE2     30.02F
#DAYTON SCHOOL  N/A         37  31  79  CALM    30.01F
#LOWDEN 2SE     N/A         36  34  92  E3      29.98F
#PLEASANT VIEW 1N/A         38  36  92  S5      30.06F
#PRESCOTT       N/A         34  33  96  CALM    30.02F
#SUDBURY        N/A         37  N/A N/A CALM    N/A
#WHITMAN COLLEGEN/A         44  36  73  CALM    30.06F
#WAITSBURG 5S   N/A         39  34  82  SE8     30.10F
#WALLA WALLA 5E N/A         40  35  82  E5      N/A
#WALLA WALLA U  N/A         37  35  92  CALM    30.02F
#WHITMAN MISSIONN/A         35  33  92  CALM    30.03F
$$

WAZ030-200710-
BLUE MOUNTAINS...WASHINGTON

CITY            SKY/WX      TMP DP  RH  WIND    PRES   REMARKS
#DIXIE 5SE      N/A         40  27  59  SE7     29.90F
#SKI BLUEWOOD   N/A         29  27  92  SW2     30.05F
$$

ORZ009-041-WAZ024-200710-
COLUMBIA RIVER GORGE

CITY            SKY/WX      TMP DP  RH  WIND    PRES   REMARKS
HOOD RIVER AP   CLOUDY      39  39  100 CALM    29.98F FOG
THE DALLES AP   CLOUDY      41  39  93  SE5     29.98F
6HR MIN TEMP:   38; 6HR MAX TEMP:   48; 6HR PCP:  0.01;

#ARLINGTON AIRPON/A         42  37  82  CALM    30.00F
#ARLINGTON HS   N/A         39  35  85  CALM    29.91F
#CELILO DOT     N/A         42  38  86  E1      N/A
#LYLE           N/A         42  40  93  NE5     30.00F
#MARYHILL 2W    N/A         40  40  100 NE1     N/A
#MOSIER 1S      N/A         39  39  100 CALM    29.97F
#MURDOCK        N/A         43  41  93  CALM    30.00F
#RUFUS DOT      N/A         42  35  76  CALM    N/A

$$

ORZ510-200710-
NORTH CENTRAL OREGON

CITY            SKY/WX      TMP DP  RH  WIND    PRES   REMARKS
#CHENOWITH 1W   N/A         40  38  92  E5      N/A
#COW CYN RST AREN/A         39  30  70  SE1     N/A
#DUFUR 9E       N/A         40  34  79  SE6     30.04F
#GRASS VALLEY   N/A         35  34  96  SE1     N/A
#GRASS VALLEY 1SN/A         35  32  89  CALM    30.00F
#KENT DOT       N/A         39  25  57  S2      N/A
#MAUPIN SCHOOL  N/A         41  36  82  CALM    29.97F
#MORO SCHOOL    N/A         37  36  96  CALM    29.97F
#SHANIKO 5WSW   N/A         38  24  57  SE10    N/A
#SHANIKO 4NW    N/A         37  30  75  S12     29.92F WCI 29
#TYGH VALLEY 2NEN/A         39  36  89  CALM    29.98F
#WAPANITIA AIRPON/A         37  34  89  CALM    29.99F
#WASCO DOT      N/A         37  33  85  CALM    N/A
#WASCO AIRPORT  N/A         39  33  79  CALM    N/A
#WASCO 5NE      N/A         37  35  92  CALM    30.01F
$$

ORZ511-200710-
CENTRAL OREGON

CITY            SKY/WX      TMP DP  RH  WIND    PRES   REMARKS
BEND AIRPORT    CLOUDY      37  32  82  S9      29.96F
MADRAS AIRPORT  MOCLDY      39  32  76  CALM    29.97F
PRINEVILLE AP   CLOUDY      41  36  82  SE8     29.95F
REDMOND AIRPORT CLOUDY      39  33  79  S8      29.94F
6HR MIN TEMP:   33; 6HR MAX TEMP:   42;

#BEND 1SW       N/A         34  33  96  SW1     N/A
#BEND-AWBREY    N/A         37  36  96  SW3     29.99F
#BEND-KIM LN    N/A         37  34  89  CALM    29.92F
#CROOKED RVR RANN/A         41  35  79  SW1     29.97F
#CULVER         N/A         43  35  73  SE5     29.89F
#LAKE BILLY CHINN/A         40  24  52  CALM    30.05F
#POWELL BUTTE 3EN/A         41  32  70  SE5     N/A
#POWELL BUTTE   N/A         42  35  76  SW8     29.58F
#PRINEVILLE 3N  N/A         41  36  82  E6      29.93F
#WARM SPRINGS   N/A         40  35  82  CALM    29.93F


ORZ509-200710-
EAST SLOPES OF OREGON CASCADES

CITY            SKY/WX      TMP DP  RH  WIND    PRES   REMARKS
#BLUE BOX PASS  N/A         32  -16 11  CALM    N/A
#BLACK BUTTE RNCN/A         34  33  96  CALM    30.01F
#CAMP SHERMAN   N/A         33  31  92  CALM    30.02F
#LA PINE DOT    N/A         34  32  92  S2      N/A
#LA PINE 4NW    N/A         34  31  89  CALM    30.04F
#LAVA BUTTE DOT N/A         34  32  92  SE2     N/A
#MT BACHELOR-MIDN/A         25  23  92  E18G33  N/A    WCI 11
#SISTERS AIRPOR N/A         34  34  100 CALM    30.17S
#SISTERS ODOT   N/A         34  N/A N/A CALM    N/A
#SISTERS 1NW    N/A         34  31  89  NE5     N/A
#SISTERS 3N     N/A         33  28  82  CALM    29.95F
#SUNRIVER       N/A         34  34  100 SW1     29.89F
#TUMALO 3W      N/A         38  34  85  S7      29.86F
#WANOGA BUTTE D N/A         30  29  96  SW7     N/A

$$

ORZ044-200710-
LOWER COLUMBIA BASIN...OREGON

CITY            SKY/WX      TMP DP  RH  WIND    PRES   REMARKS
HERMISTON       CLOUDY      39  36  89  E7      29.98F
6HR MIN TEMP:   37; 6HR MAX TEMP:   48;

#BOARDMAN 3W    N/A         37  35  92  CALM    29.74S
#BOARDMAN 8SW   N/A         40  37  89  W3      29.99F
#ECHO 8SW       N/A         38  33  82  SW5     29.96F
#IONE SCHOOL    N/A         37  25  61  CALM    29.97F
#IRRIGON 4NW    N/A         41  40  96  NE5     N/A
#UMATILLA SCHOOLN/A         35  35  100 CALM    30.05F
#UMATILLA       N/A         39  35  85  E1      29.97F
$$

ORZ507-200710-
NORTHERN FOOTHILLS OF THE BLUES

CITY            SKY/WX      TMP DP  RH  WIND    PRES   REMARKS
PENDLETON AIRPT MOCLDY      37  34  89  SE7     29.98F
6HR MIN TEMP:   35; 6HR MAX TEMP:   44;

#ADAMS 3WNW     N/A         36  33  89  CALM    30.01F
#ATHENA         N/A         40  35  82  E2      30.03F
#CAYUSE         N/A         44  36  73  E7      29.99F
#HELIX SCHOOL   N/A         34  33  96  S3      30.01F
#HELIX 3N       N/A         38  34  85  SE12    29.95F WCI 30
#HELIX 6SW      N/A         36  34  92  E2      29.97F
#HOLDMAN 5SE    N/A         37  35  92  CALM    29.98F
#HOLDMAN 6E     N/A         37  34  89  N1      29.82F
#M-F GROVE ELEM N/A         45  33  63  E6      29.98F
#M-FREEWATER 5SEN/A         41  35  79  E6      29.99F
#PENDLETON DNTN N/A         35  33  92  CALM    28.82F
#PDT AQUATIC CTRN/A         36  34  92  CALM    29.97F
#PENDLETON 5NE  N/A         35  33  92  CALM    29.95F
#PDT SUNRIDGE   N/A         69  69  100 CALM    30.00F
#PENDLETON 7NW  N/A         36  32  85  SE3     N/A
#PILOT ROCK     N/A         33  26  75  CALM    29.99F
#TUTUILLA       N/A         37  34  89  CALM    29.99F
#UMAPINE 2E     N/A         42  37  82  SE6     29.96F
#WESTON SCHOOL  N/A         42  31  65  SW2     29.97F

$$

ORZ508-200710-
SOUTHERN FOOTHILLS OF THE BLUES

CITY            SKY/WX      TMP DP  RH  WIND    PRES   REMARKS
LEXINGTON       CLOUDY      39  34  82  SE5     29.98F
#AJAX           N/A         40  26  57  CALM    29.89F
#CONDON SCHOOL  N/A         38  32  79  CALM    29.91F
#CONDON 5W      N/A         37  28  70  S5      29.91F
#FOSSIL SCHOOL  N/A         42  34  73  E1      29.93F
#HEPPNER EOC    N/A         44  35  70  SE3     29.93F
#HEPPNER 4NE    N/A         42  33  70  S6      29.97F
#LEXINGTON 2SE  N/A         39  32  76  CALM    29.92F
#MIKKALO        N/A         38  31  76  SE1     29.96F
#OLEX 4N        N/A         38  34  85  S2      29.97F
#RUGGS 5NE      N/A         41  32  70  N5      30.11F
#RUGGS 2SW      N/A         41  34  76  S7      30.00F

$$

ORZ502-503-200710-
BLUE MOUNTAINS

CITY            SKY/WX      TMP DP  RH  WIND    PRES   REMARKS
MEACHAM         MOCLDY      31  29  92  CALM    29.98F
6HR MIN TEMP:   30; 6HR MAX TEMP:   37;

#BATTLE MTN DOT N/A         31  31  100 SE7     N/A
#HARDMAN 10S    N/A         32  31  96  S2      30.16F
#HEPPNER 15SE   N/A         35  32  89  CALM    29.85F
#LADD CYN SMT   N/A         35  32  89  SE9     N/A
#LADD CREEK ODOTN/A         33  32  96  W3      N/A
#LONG CREEK HS  N/A         36  34  92  CALM    29.94F
#N POWDER DOT   N/A         34  34  100 SW3     N/A
#PIKES PEAK     N/A         39  27  62  S15     27.99S WCI 31
#TOLLGATE       N/A         29  27  92  CALM    29.90F
#TROY SCHOOL    N/A         32  31  96  CALM    29.96F
#UKIAH          N/A         27  26  96  CALM    30.10F
#WESTON 4E      N/A         35  32  89  SE8     29.98F
$$

ORZ505-200710-
JOHN DAY BASIN

CITY            SKY/WX      TMP DP  RH  WIND    PRES   REMARKS
JOHN DAY        CLOUDY      36  33  89  E12     30.02F WCI 28
#JOHN DAY KJDY  N/A         36  34  92  E2      30.09R
#DAYVILLE SCHOOLN/A         32  29  89  CALM    30.16S
#MONUMENT HS    N/A         32  29  89  CALM    30.03F
#MT. VERNON 5SE N/A         36  32  85  CALM    29.96F
#WINLOCK        N/A         37  33  85  CALM    30.05F
$$

ORZ506-200710-
OCHOCO AND JOHN DAY HIGHLANDS

CITY            SKY/WX      TMP DP  RH  WIND    PRES   REMARKS
#BUCK CREEK DOT N/A         37  37  100 SE7     N/A
#HORSE RIDGE DO N/A         37  32  82  SE9     N/A
#KEYES SMT DOT  N/A         36  30  79  CALM    N/A
#PRAIRIE CITY   N/A         29  25  85  CALM    30.21F
#SENECA         N/A         30  N/A N/A CALM    N/A
#SENECA 9NW     N/A         29  28  96  CALM    30.09
$$

ORZ049-200710-
GRANDE RONDE VALLEY

CITY            SKY/WX      TMP DP  RH  WIND    PRES   REMARKS
LA GRANDE       PTCLDY      39  30  70  S13     30.02F WCI 31
#COVE           N/A         31  26  81  CALM    30.03S
#COVE SCHOOL    N/A         35  32  89  NE1     29.99F
#COVE 6NW       N/A         34  31  89  CALM    30.11F
#ELGIN 3N       N/A         32  28  85  CALM    29.76F
#ELGIN 1E       N/A         33  29  85  E1      N/A
#IMBLER SCHOOL  N/A         31  28  88  SW1     30.00F
#ISLAND CITY 4N N/A         46  44  93  CALM    29.90F
#LADD CYN DOT   N/A         39  34  82  S12     N/A    WCI 32
#UNION 1S       N/A         38  35  89  S6      29.99F
$$

ORZ050-200710-
WALLOWA COUNTY

CITY            SKY/WX      TMP DP  RH  WIND    PRES   REMARKS
#ENTERPRISE AP  N/A         28  24  85  CALM    29.96F
#ENTERPRISE HS  N/A         28  26  92  CALM    30.03F
#IMNAHA SCHOOL  N/A         34  32  92  S1      30.06F
#IMNAHA 10S     N/A         31  29  92  SW6     30.03F
#JOSEPH 3N      N/A         25  22  88  CALM    30.03F
#JOSEPH 3W      N/A         28  23  81  CALM    29.83F
#LOSTINE        N/A         29  27  92  CALM    29.91F
#MT HOWARD 8000 N/A         21  14  74  SW7G25  29.89F
#PROMISE 1S     N/A         31  30  96  CALM    30.21F
#SHEEP RDG 7000 N/A         26  16  65  CALM    30.08S
#WALLOWA SCHOOL N/A         29  28  96  CALM    31.10F



$$



USA.gov is the U.S. government's official web portal to all federal, state and local government web resources and services.